Location: Heathcote
(40.9845°N, 73.7746°W)
Time: 13:18:00
(UTC+00:00)

COSMO-SKYMED 1 - Pass Details

Date: 29 October 2020
Orbit: 621 x 623 km, 97.9° (Epoch: 01 December)

Event Time Altitude Azimuth Distance (km) Brightness Sun altitude
Rises 23:31:08 0° 5° (N) 2,912 5.9 -18.8°
Reaches altitude 10° 23:33:24 10° 359° (N) 2,001 5.2 -19.3°
Maximum altitude 23:37:30 42° 288° (WNW) 887 3.8 -20.1°
Drops below altitude 10° 23:41:35 10° 218° (SW) 1,985 5.6 -20.8°
Sets 23:43:51 0° 211° (SSW) 2,887 6.4 -21.2°
